STARLINK-1176 (45090 NORAD) Tracking and Keplerian Element Data

This shows tracking and keplerian element data for the satellite.

Feedback or suggestion? Click here.




ElementValue
Catalog45090
NameSTARLINK-1176
Epoch Orbit372
Epoch Day52.91667824
Epoch Year2020
RAAN117.4656
Inclination52.9963
Eccentricity0.0001084
Argument of Perigee80.9712
Mean Anonmoly344.6603
Mean Motion15.82734886
Decay Rate0.00064561
L11 45090U 20006AY 20052.91667824 .00064561 00000-0 30100-3 0 9997
L22 45090 52.9963 117.4656 0001084 80.9712 344.6603 15.82734886 3724

Live tracking and technical data element details for STARLINK-1176 (NORAD 45090). STARLINK-1176 can be tracked NOW for your location showing map with azimuth and elevation plus other details from your city location.

Track the satellite on the map from your city or location and see movement details for azimuth, elevation, latitude, longitude, range, height, and movement on the map or in text.







IsCatalogInMostPopularTable: catalog: 45090, numindb: 7
Update: records affected: 1



GetName: 45090 STARLINK-1176

Hit Count: updated at: Wed, 26 Feb 2020 15:03:27 GMT